Stony Rapids, Saskatchewan

2:17 AM CST on May 27, 2017 (GMT -0600)
Stony Rapids

Weather History for CYSF - December, 2012

Change the Weather History Date:

Sunday, December 2, 2012

  Actual Average Record
Temperature  
Mean Temperature -5 °F -  
Max Temperature -1 °F 4 °F 28 °F (2000)
Min Temperature -9 °F -9 °F -40 °F (2006)
Degree Days  
Heating Degree Days 70    
Moisture  
Dew Point -10 °F    
Average Humidity 75    
Maximum Humidity 84    
Minimum Humidity 61    
Precipitation  
Precipitation 0.00 in - - ()
Sea Level Pressure  
Sea Level Pressure 30.07 in    
Wind  
Wind Speed 8 mph ()    
Max Wind Speed 14 mph    
Max Gust Speed 20 mph    
Visibility 8.0 miles    
Events Snow    
Averages and records for this station are not official NWS values.
T = Trace of Precipitation, MM = Missing Value Source: Averaged Metar Reports

Daily Weather History Graph

Daily Weather History Graph

Search for Another Location

Airport or City:

Trip Planner

Search our weather history database for the weather conditions in past years. The results will help you decide how hot, cold, wet, or windy it might be!

Date:

Astronomy

Dec. 02, 2012 Rise Set
Actual Time 9:35 AM CST 4:10 PM CST
Civil Twilight 8:42 AM CST 5:02 PM CST
Nautical Twilight 7:49 AM CST 5:56 PM CST
Astronomical Twilight 6:59 AM CST 6:46 PM CST
Moon 8:29 PM CST (12/2) 12:01 PM CST (12/2)
Length of Visible Light 8h 20m
Length of Day
6h 34m
Waning Gibbous, 85% of the Moon is Illuminated
Dec 2
Waning Gibbous
Dec 6
Last Quarter
Dec 13
New
Dec 19
First Quarter
Dec 28
Full

Hourly Weather History & Observations

Time (CST) Temp. Windchill Dew Point Humidity Pressure Visibility Wind Dir Wind Speed Gust Speed Precip Events Conditions
12:00 AM -3 °F - -9 °F 64% 30.13 in 10 mi ENE 6.9 mph - - Snow Light Snow
12:00 AM -4.0 °F -17.8 °F -9.4 °F 78% 30.13 in 9.0 mi East 6.9 mph - N/A Snow Light Snow
12:26 AM -2.2 °F -16.8 °F -9.4 °F 71% 30.12 in 9.0 mi ENE 8.1 mph - N/A   Overcast
12:54 AM -2.2 °F -15.6 °F -9.4 °F 71% 30.11 in 9.0 mi ENE 6.9 mph - N/A Snow Light Snow
1:00 AM -4.0 °F -17.8 °F -9.4 °F 78% 30.11 in 9.0 mi ENE 6.9 mph - N/A Snow Light Snow
1:04 AM -2.2 °F -14.2 °F -9.4 °F 71% 30.10 in 9.0 mi ENE 5.8 mph - N/A   Overcast
1:07 AM -2.2 °F -15.6 °F -9.4 °F 71% 30.11 in 9.0 mi ENE 6.9 mph - N/A Snow Light Snow
1:21 AM -2.2 °F -15.6 °F -9.4 °F 71% 30.10 in 9.0 mi ENE 6.9 mph - N/A   Overcast
1:44 AM -4.0 °F -17.8 °F -9.4 °F 78% 30.11 in 9.0 mi East 6.9 mph - N/A Snow Light Snow
1:58 AM -4.0 °F -14.6 °F -9.4 °F 78% 30.10 in 9.0 mi East 4.6 mph - N/A   Overcast
2:00 AM -4.0 °F -16.3 °F -9.4 °F 78% 30.10 in 9.0 mi ENE 5.8 mph - N/A   Overcast
2:48 AM -4.0 °F -17.8 °F -9.4 °F 78% 30.09 in 9.0 mi ENE 6.9 mph - N/A Snow Light Snow
3:00 AM -4.0 °F -17.8 °F -9.4 °F 78% 30.09 in 9.0 mi ENE 6.9 mph - N/A Snow Light Snow
3:21 AM -4.0 °F -19.0 °F -9.4 °F 78% 30.08 in 9.0 mi East 8.1 mph - N/A   Overcast
4:00 AM -4.0 °F -17.8 °F -9.4 °F 78% 30.08 in 9.0 mi ENE 6.9 mph - N/A   Partly Cloudy
5:00 AM -4.0 °F -20.2 °F -11.2 °F 71% 30.07 in 9.0 mi ENE 9.2 mph - N/A   Overcast
6:00 AM -5 °F - -11 °F 64% 30.08 in 10 mi ENE 8.1 mph - -  
6:15 AM -5.8 °F -21.2 °F -11.2 °F 77% 30.07 in 9.0 mi ENE 8.1 mph - N/A Snow Light Snow
6:43 AM -5.8 °F -23.4 °F -11.2 °F 77% 30.07 in 9.0 mi ENE 10.4 mph - N/A   Overcast
7:00 AM -5.8 °F -23.4 °F -11.2 °F 77% 30.07 in 9.0 mi ENE 10.4 mph - N/A   Overcast
7:02 AM -5.8 °F -22.4 °F -11.2 °F 77% 30.07 in 9.0 mi ENE 9.2 mph - N/A Snow Light Snow
7:12 AM -5.8 °F -21.2 °F -11.2 °F 77% 30.07 in 5.0 mi ENE 8.1 mph - N/A Snow Light Snow
7:24 AM -5.8 °F -21.2 °F -9.4 °F 84% 30.06 in 2.2 mi ENE 8.1 mph - N/A Snow Light Snow
7:32 AM -5.8 °F -21.2 °F -9.4 °F 84% 30.06 in 2.2 mi ENE 8.1 mph - N/A Snow Light Snow
7:38 AM -5.8 °F -18.4 °F -9.4 °F 84% 30.06 in 2.5 mi ENE 5.8 mph - N/A Snow Light Snow
7:41 AM -5.8 °F -21.2 °F -9.4 °F 84% 30.06 in 3.0 mi ENE 8.1 mph - N/A Snow Light Snow
7:49 AM -4.0 °F -20.2 °F -9.4 °F 78% 30.06 in 6.0 mi ENE 9.2 mph - N/A Snow Light Snow
8:00 AM -4.0 °F -21.2 °F -9.4 °F 78% 30.06 in 9.0 mi ENE 10.4 mph - N/A Snow Light Snow
9:00 AM -4.0 °F -23.0 °F -9.4 °F 78% 30.05 in 9.0 mi East 12.7 mph - N/A Snow Light Snow
10:00 AM -4.0 °F -22.1 °F -9.4 °F 78% 30.05 in 7.0 mi ENE 11.5 mph - N/A Snow Light Snow
10:16 AM -4.0 °F -21.2 °F -9.4 °F 78% 30.05 in 5.0 mi East 10.4 mph - N/A Snow Light Snow
10:31 AM -4.0 °F -20.2 °F -9.4 °F 78% 30.05 in 6.0 mi East 9.2 mph - N/A Snow Light Snow
11:00 AM -2.2 °F -18.0 °F -9.4 °F 71% 30.05 in 9.0 mi ENE 9.2 mph - N/A Snow Light Snow
11:18 AM -2.2 °F -19.9 °F -7.6 °F 78% 30.06 in 5.0 mi ENE 11.5 mph 18.4 mph N/A Snow Light Snow
11:40 AM -2.2 °F -19.9 °F -7.6 °F 78% 30.05 in 8.0 mi East 11.5 mph 17.3 mph N/A Snow Light Snow
12:00 PM -3 °F - -9 °F 65% 30.06 in 10 mi East 10.4 mph - - Snow Light Snow
12:00 PM -2.2 °F -18.0 °F -9.4 °F 71% 30.06 in 9.0 mi East 9.2 mph - N/A Snow Light Snow
12:17 PM -2.2 °F -21.5 °F -7.6 °F 78% 30.06 in 5.0 mi East 13.8 mph 19.6 mph N/A Snow Light Snow
1:00 PM -2.2 °F -18.9 °F -7.6 °F 78% 30.06 in 4.0 mi East 10.4 mph - N/A Snow Light Snow
1:52 PM -2.2 °F -20.7 °F -7.6 °F 78% 30.04 in 6.0 mi ENE 12.7 mph - N/A Snow Light Snow
2:00 PM -2.2 °F -18.0 °F -7.6 °F 78% 30.04 in 9.0 mi ENE 9.2 mph 17.3 mph N/A Snow Light Snow
2:43 PM -2.2 °F -18.9 °F -9.4 °F 71% 30.04 in 9.0 mi East 10.4 mph - N/A   Overcast
3:00 PM -2.2 °F -18.9 °F -9.4 °F 71% 30.04 in 9.0 mi ENE 10.4 mph 18.4 mph N/A   Mostly Cloudy
3:43 PM -4.0 °F -19.0 °F -9.4 °F 78% 30.05 in 9.0 mi East 8.1 mph - N/A Snow Light Snow
4:00 PM -4.0 °F -20.2 °F -11.2 °F 71% 30.05 in 9.0 mi ENE 9.2 mph - N/A Snow Light Snow
4:11 PM -4.0 °F -20.2 °F -11.2 °F 71% 30.05 in 9.0 mi ENE 9.2 mph - N/A   Clear
5:00 PM -4.0 °F -20.2 °F -11.2 °F 71% 30.06 in 9.0 mi ENE 9.2 mph - N/A   Clear
5:53 PM -5.8 °F -21.2 °F -11.2 °F 77% 30.07 in 9.0 mi East 8.1 mph - N/A Snow Light Snow
6:00 PM -5 °F - -12 °F 61% 30.07 in 10 mi East 9.2 mph - - Snow Light Snow
6:00 PM -5.8 °F -23.4 °F -11.2 °F 77% 30.07 in 9.0 mi East 10.4 mph - N/A Snow Light Snow
6:10 PM -5.8 °F -22.4 °F -11.2 °F 77% 30.07 in 9.0 mi ENE 9.2 mph - N/A   Clear
6:14 PM -5.8 °F -22.4 °F -11.2 °F 77% 30.07 in 9.0 mi East 9.2 mph - N/A Snow Light Snow
6:43 PM -5.8 °F -23.4 °F -13.0 °F 71% 30.07 in 9.0 mi East 10.4 mph - N/A   Clear
7:00 PM -5.8 °F -21.2 °F -11.2 °F 77% 30.08 in 9.0 mi ENE 8.1 mph - N/A   Clear
8:00 PM -5.8 °F -21.2 °F -13.0 °F 71% 30.09 in 9.0 mi East 8.1 mph - N/A   Clear
9:00 PM -7.6 °F -22.1 °F -13.0 °F 77% 30.09 in 9.0 mi ENE 6.9 mph - N/A   Clear
10:00 PM -7.6 °F -24.6 °F -13.0 °F 77% 30.10 in 9.0 mi ENE 9.2 mph - N/A   Clear
11:00 PM -5.8 °F -22.4 °F -13.0 °F 71% 30.12 in 9.0 mi ENE 9.2 mph - N/A   Scattered Clouds